Vorticity
2 3 11 -0 7 8 9 4 8 5 5 10 7 3 3 6 11 -12 13 5 10 6 13 3 0 5 6 7 16 13 7 9 -2 9 8 10 26 35 26 12 8 3 6 12
5 11 3 5 8 7 5 8 7 3 1 8 10 7 4 6 4 11 0 2 3 12 7 11 1 -1 5 6 11 15 13 9 12 11 15 9 20 16 2 25 27 12 7 7
7 8 10 8 6 8 7 7 2 2 0 6 10 20 7 12 8 12 6 6 5 10 11 19 1 9 2 4 9 13 7 6 9 17 8 27 25 15 4 13 24 17 12 17
7 8 8 5 6 8 5 2 2 -0 7 18 0 9 4 15 8 18 9 3 13 15 6 6 3 9 0 6 7 8 12 11 4 7 27 25 25 30 18 17 18 24 21 12
4 4 6 7 9 6 2 3 4 7 7 11 22 17 7 15 12 8 6 16 11 1 12 8 -1 2 3 4 6 8 10 13 5 6 57 17 24 26 25 21 13 14 15 18
5 10 6 6 8 7 7 7 8 7 8 22 6 2 13 1 7 12 8 8 9 14 8 14 4 8 2 2 6 10 6 13 3 1 57 8 23 22 16 21 16 13 19 8
3 4 3 9 12 10 12 12 19 24 15 12 3 3 9 7 5 10 12 2 2 8 16 -8 39 4 1 5 8 -2 4 11 6 2 40 21 17 14 14 14 10 12 14 9
7 8 8 9 11 15 14 13 9 5 10 8 1 13 8 24 18 17 5 6 15 17 8 2 19 2 5 8 5 7 -1 6 9 9 14 27 16 8 16 20 18 17 13 15
9 7 6 9 12 17 19 10 14 7 10 -7 7 6 21 15 15 20 3 8 14 12 5 7 5 5 16 -7 13 20 -3 4 9 7 5 47 7 20 7 30 6 6 16 13
7 7 14 9 14 18 9 16 9 8 6 2 6 7 9 10 14 6 9 16 8 12 13 8 13 -4 -9 3 18 -4 15 4 6 13 9 4 53 19 11 14 7 3 12 18
9 16 10 12 10 13 12 9 11 3 -3 1 9 11 4 9 8 3 4 1 6 11 7 9 12 9 11 8 -3 6 14 3 4 8 9 8 4 41 15 4 20 -9 7 14
13 12 9 9 5 13 7 9 6 2 6 22 5 -4 3 10 -2 4 -2 -1 10 12 11 10 11 18 -11 13 7 29 -2 5 2 2 7 10 7 3 27 24 20 9 32 9
11 10 10 10 7 9 13 9 10 11 -2 -8 2 2 -1 14 -3 -1 -3 9 -3 14 6 13 -7 14 4 18 28 20 20 3 1 4 4 5 11 8 8 14 14 2 10 12
9 10 5 6 10 9 18 13 13 4 4 10 6 9 7 -3 10 19 17 3 1 7 10 12 1 15 6 6 20 20 9 1 1 10 6 3 4 8 12 6 9 13 10 17
8 7 6 2 -2 10 -9 12 14 4 9 1 3 15 7 7 2 4 3 4 -0 11 9 13 5 11 -2 -1 3 -0 -3 -5 3 10 5 5 1 4 6 10 13 7 8 12
9 12 11 4 5 3 6 12 -9 -1 -1 -2 -10 18 6 8 4 4 9 5 -0 18 12 14 11 3 -1 -25 2 18 -2 11 -5 -0 11 5 2 7 11 3 8 14 12 5
5 6 8 2 20 5 17 7 3 4 1 -1 17 5 1 -1 5 4 9 5 14 22 3 20 -4 8 6 11 8 -5 0 2 7 12 7 13 3 1 16 5 2 6 9 8
8 1 4 -8 12 15 6 5 27 17 14 13 5 2 -2 -3 2 4 4 11 10 23 4 7 5 5 2 1 -0 -1 1 14 18 17 17 14 6 2 5 12 3 5 7 9
7 4 10 3 5 6 11 4 15 14 7 11 10 -1 -2 5 0 1 2 27 11 16 8 7 8 6 3 2 5 13 17 12 15 8 22 13 7 7 10 9 8 13 10 3
12 15 8 2 -11 -1 1 4 4 7 1 -3 0 -0 3 -1 -2 4 26 16 17 13 7 4 -0 1 8 15 11 13 11 10 7 19 20 14 10 8 15 14 15 13 25 24
15 22 19 27 24 6 -4 3 -0 4 -1 3 4 3 -3 -1 13 29 10 21 14 13 8 4 7 4 14 4 15 20 6 15 7 18 19 5 5 7 9 9 7 12 11 8
-1 11 7 21 -2 13 16 16 11 6 6 5 4 4 3 2 22 21 29 4 7 6 1 11 8 14 10 12 15 16 12 8 5 19 15 9 7 7 8 3 7 -5 5 10
6 -10 -7 -14 -5 13 16 11 17 24 14 4 3 -3 7 12 15 20 15 -3 1 5 6 5 10 8 7 10 10 9 11 15 14 20 13 7 14 1 -1 30 30 1 12 -2
8 15 13 12 16 15 11 12 13 16 22 25 25 16 17 16 14 10 18 2 2 11 8 8 6 6 7 8 9 11 13 14 16 22 9 2 12 -9 7 12 5 9 16 35
6 -7 14 14 9 9 19 19 19 16 10 16 13 9 26 25 10 16 8 7 7 15 10 2 5 10 7 8 10 13 15 18 15 12 16 17 9 5 9 14 12 18 2 37
9 3 11 9 13 15 8 9 6 6 7 9 9 12 7 15 15 14 14 8 13 11 9 2 4 8 11 10 11 13 14 20 14 15 19 17 16 18 17 14 12 22 18 7
Height
5890 5892 5892 5891 5892 5894 5896 5896 5895 5892 5893 5894 5892 5891 5892 5892 5890 5888 5885 5882 5879 5877 5874 5873 5870 5867 5866 5863 5860 5857 5855 5852 5850 5846 5842 5838 5832 5829 5828 5829 5832 5834 5836 5839
5887 5887 5887 5887 5890 5891 5891 5892 5891 5889 5889 5891 5890 5890 5889 5889 5887 5885 5883 5880 5877 5875 5872 5870 5868 5866 5863 5861 5858 5854 5852 5848 5844 5838 5834 5829 5824 5822 5821 5818 5819 5824 5829 5831
5881 5882 5883 5884 5886 5887 5887 5888 5886 5886 5887 5887 5887 5887 5885 5885 5884 5883 5881 5878 5875 5872 5870 5868 5866 5865 5861 5858 5854 5851 5847 5842 5837 5832 5825 5818 5813 5813 5813 5813 5813 5815 5819 5823
5876 5877 5879 5880 5881 5882 5882 5881 5881 5882 5884 5887 5883 5890 5883 5881 5880 5879 5878 5875 5872 5869 5867 5865 5863 5862 5857 5854 5852 5848 5844 5837 5830 5823 5815 5808 5805 5804 5805 5807 5808 5810 5814 5818
5871 5871 5874 5876 5877 5877 5877 5876 5878 5879 5880 5880 5880 5882 5883 5878 5876 5876 5874 5871 5869 5868 5864 5862 5861 5857 5854 5852 5848 5844 5838 5831 5824 5817 5807 5803 5800 5798 5800 5801 5804 5807 5810 5813
5864 5867 5869 5870 5870 5871 5871 5873 5873 5875 5876 5877 5878 5877 5880 5876 5873 5872 5869 5867 5865 5864 5862 5859 5856 5853 5850 5849 5845 5840 5834 5827 5821 5812 5804 5801 5797 5797 5798 5799 5801 5805 5807 5811
5858 5860 5861 5863 5864 5864 5865 5868 5870 5872 5873 5876 5873 5872 5874 5871 5869 5867 5866 5864 5861 5861 5858 5854 5852 5848 5847 5845 5841 5837 5832 5826 5819 5813 5805 5799 5797 5798 5798 5799 5801 5803 5806 5810
5852 5855 5855 5856 5858 5857 5858 5861 5868 5871 5874 5874 5869 5869 5871 5867 5865 5864 5863 5862 5860 5858 5854 5851 5848 5845 5843 5841 5839 5835 5831 5825 5820 5813 5806 5801 5798 5799 5799 5799 5802 5804 5806 5809
5847 5849 5848 5850 5851 5852 5853 5854 5861 5864 5866 5867 5869 5866 5865 5864 5863 5861 5860 5859 5857 5854 5851 5849 5845 5843 5843 5841 5837 5834 5830 5826 5821 5814 5808 5802 5800 5799 5801 5800 5803 5805 5807 5810
5840 5843 5842 5844 5845 5847 5848 5853 5856 5859 5863 5865 5866 5863 5863 5862 5861 5860 5859 5857 5855 5851 5848 5847 5845 5842 5840 5838 5834 5831 5828 5826 5822 5816 5810 5805 5802 5801 5803 5804 5806 5808 5810 5812
5835 5838 5838 5840 5841 5843 5846 5849 5852 5857 5858 5862 5864 5862 5860 5859 5859 5858 5856 5855 5852 5848 5846 5844 5841 5838 5836 5833 5830 5827 5825 5825 5823 5818 5812 5809 5806 5803 5804 5806 5807 5810 5812 5814
5829 5831 5834 5837 5837 5840 5842 5845 5847 5852 5855 5854 5856 5861 5857 5856 5856 5855 5853 5850 5848 5845 5842 5840 5838 5836 5834 5830 5825 5824 5824 5823 5822 5819 5816 5812 5809 5808 5805 5806 5808 5810 5811 5814
5823 5826 5831 5834 5835 5835 5837 5840 5843 5846 5849 5852 5855 5856 5851 5853 5853 5851 5849 5847 5844 5841 5839 5837 5836 5834 5832 5827 5822 5821 5821 5821 5822 5821 5817 5815 5812 5811 5809 5809 5809 5809 5810 5811
5817 5821 5826 5835 5834 5834 5833 5837 5839 5842 5846 5848 5846 5851 5849 5849 5847 5846 5845 5844 5842 5840 5836 5835 5833 5832 5830 5828 5821 5820 5821 5822 5822 5821 5819 5816 5814 5813 5812 5812 5810 5809 5809 5810
5812 5816 5820 5823 5825 5828 5831 5835 5836 5838 5841 5843 5844 5843 5846 5843 5841 5840 5840 5839 5838 5835 5833 5830 5829 5829 5829 5826 5825 5822 5822 5822 5820 5819 5816 5815 5814 5813 5812 5811 5810 5809 5809 5809
5804 5810 5813 5817 5820 5823 5824 5827 5830 5833 5836 5838 5840 5841 5839 5837 5836 5835 5834 5834 5832 5831 5829 5826 5825 5824 5825 5823 5822 5821 5820 5819 5817 5816 5815 5812 5810 5810 5810 5809 5808 5808 5807 5807
5797 5802 5807 5812 5813 5817 5819 5821 5824 5826 5829 5832 5834 5835 5833 5831 5830 5829 5829 5827 5826 5826 5824 5822 5821 5821 5819 5818 5817 5818 5817 5816 5814 5812 5811 5809 5807 5806 5805 5805 5805 5805 5805 5805
5790 5794 5799 5804 5804 5809 5812 5814 5816 5819 5822 5826 5827 5827 5826 5826 5825 5823 5822 5821 5819 5819 5819 5818 5817 5815 5814 5814 5812 5810 5808 5807 5807 5805 5804 5803 5802 5802 5802 5802 5801 5801 5801 5802
5781 5787 5791 5793 5797 5804 5803 5805 5810 5813 5816 5818 5819 5820 5819 5819 5818 5816 5815 5813 5812 5812 5812 5812 5811 5810 5809 5808 5806 5803 5801 5800 5799 5798 5797 5797 5796 5797 5797 5798 5798 5797 5797 5796
5771 5777 5783 5785 5788 5793 5797 5797 5803 5807 5808 5810 5811 5812 5812 5811 5809 5809 5806 5805 5805 5805 5806 5806 5805 5804 5803 5801 5799 5797 5793 5792 5793 5793 5791 5791 5792 5792 5791 5792 5791 5791 5791 5791
5761 5765 5771 5775 5778 5782 5780 5787 5794 5797 5802 5799 5803 5803 5803 5802 5802 5799 5799 5799 5799 5800 5800 5800 5799 5797 5795 5793 5791 5790 5788 5787 5785 5783 5784 5785 5785 5786 5787 5786 5784 5783 5785 5785
5753 5757 5763 5765 5767 5771 5770 5778 5782 5784 5788 5790 5792 5793 5794 5794 5794 5793 5793 5793 5793 5794 5793 5793 5791 5789 5787 5785 5783 5782 5781 5781 5782 5780 5780 5781 5781 5780 5780 5780 5778 5777 5778 5779
5745 5747 5756 5755 5758 5759 5764 5767 5770 5773 5776 5779 5782 5784 5785 5786 5786 5786 5787 5787 5788 5787 5787 5786 5785 5783 5781 5779 5777 5776 5774 5774 5774 5774 5776 5776 5775 5773 5774 5770 5768 5768 5770 5770
5735 5739 5742 5746 5748 5751 5755 5758 5761 5764 5766 5769 5771 5774 5776 5776 5778 5779 5780 5781 5781 5780 5780 5780 5779 5777 5775 5773 5770 5769 5768 5767 5766 5768 5770 5770 5769 5767 5767 5766 5766 5765 5764 5762
5723 5729 5733 5735 5739 5741 5744 5748 5752 5757 5759 5761 5763 5765 5767 5768 5769 5771 5773 5774 5774 5774 5774 5773 5772 5770 5768 5766 5764 5763 5763 5761 5761 5761 5762 5763 5763 5761 5760 5760 5759 5758 5757 5756
5714 5720 5726 5728 5730 5734 5737 5740 5744 5749 5751 5754 5757 5758 5760 5761 5763 5764 5765 5767 5767 5767 5767 5766 5764 5763 5761 5759 5758 5757 5756 5755 5756 5756 5756 5756 5755 5755 5755 5754 5752 5751 5750 5749